Warrenton, VA

8:13 AM EDT on October 23, 2017 (GMT -0400)
Warrenton

Weather History for KHWY - November, 2011

Change the Weather History Date:

Thursday, November 10, 2011

  Actual Average (KHEF) Record (KHEF)
Temperature  
Mean Temperature 48 °F -  
Max Temperature 55 °F 55 °F 75 °F (2006)
Min Temperature 42 °F 32 °F 21 °F (2003)
Degree Days  
Heating Degree Days 16    
Moisture  
Dew Point 46 °F    
Average Humidity 90    
Maximum Humidity 100    
Minimum Humidity 62    
Precipitation  
Precipitation 0.01 in - - ()
Sea Level Pressure  
Sea Level Pressure 29.88 in    
Wind  
Wind Speed 3 mph (North)    
Max Wind Speed 12 mph    
Max Gust Speed 24 mph    
Visibility 8 miles    
Events Rain    
Averages and records for this station are not official NWS values.
T = Trace of Precipitation, MM = Missing Value Source: NWS Daily Summary

Daily Weather History Graph

Daily Weather History Graph

Search for Another Location

Airport or City:

Trip Planner

Search our weather history database for the weather conditions in past years. The results will help you decide how hot, cold, wet, or windy it might be!

Date:

Astronomy

Nov. 10, 2011 Rise Set
Actual Time 6:47 AM EST 5:01 PM EST
Civil Twilight 6:18 AM EST 5:30 PM EST
Nautical Twilight 5:47 AM EST 6:01 PM EST
Astronomical Twilight 5:15 AM EST 6:32 PM EST
Moon 4:49 PM EST (11/10) 6:37 AM EST (11/10)
Length of Visible Light 11h 11m
Length of Day
10h 14m
Full, 100% of the Moon is Illuminated
Nov 10
Full
Nov 10
Full
Nov 18
Last Quarter
Nov 25
New
Dec 2
First Quarter

Hourly Weather History & Observations

Time (EST) Temp. Windchill Dew Point Humidity Pressure Visibility Wind Dir Wind Speed Gust Speed Precip Events Conditions
12:15 AM 42.8 °F - 42.8 °F 100% 29.96 in 7.0 mi Calm Calm - N/A   Clear
12:35 AM 42.8 °F - 42.8 °F 100% 29.96 in 4.0 mi Calm Calm - N/A   Clear
12:55 AM 42.8 °F - 42.8 °F 100% 29.96 in 7.0 mi Calm Calm - N/A   Scattered Clouds
1:15 AM 44.6 °F - 44.6 °F 100% 29.95 in 7.0 mi Calm Calm - N/A   Scattered Clouds
1:35 AM 44.6 °F - 44.6 °F 100% 29.95 in 5.0 mi Calm Calm - N/A   Scattered Clouds
1:55 AM 44.6 °F - 44.6 °F 100% 29.94 in 10.0 mi Calm Calm - N/A   Scattered Clouds
2:15 AM 44.6 °F - 44.6 °F 100% 29.93 in 10.0 mi Calm Calm - N/A   Scattered Clouds
2:35 AM 44.6 °F - 44.6 °F 100% 29.92 in 5.0 mi Calm Calm - N/A   Scattered Clouds
3:15 AM 42.8 °F - 42.8 °F 100% 29.91 in 0.8 mi Calm Calm - N/A   Mostly Cloudy
3:35 AM 44.6 °F - 44.6 °F 100% 29.90 in 5.0 mi Calm Calm - N/A   Overcast
3:55 AM 44.6 °F - 44.6 °F 100% 29.90 in 7.0 mi Calm Calm - N/A   Overcast
4:15 AM 46.4 °F - 46.4 °F 100% 29.90 in 5.0 mi Calm Calm - N/A   Overcast
4:35 AM 46.4 °F - 46.4 °F 100% 29.89 in 7.0 mi Calm Calm - N/A   Overcast
4:55 AM 46.4 °F - 46.4 °F 100% 29.89 in 7.0 mi Calm Calm - N/A   Overcast
5:15 AM 48.2 °F - 48.2 °F 100% 29.89 in 7.0 mi Calm Calm - N/A   Overcast
5:55 AM 50.0 °F - 50.0 °F 100% 29.88 in 5.0 mi Calm Calm - N/A   Overcast
6:15 AM 51.8 °F - 51.8 °F 100% 29.88 in 5.0 mi Calm Calm - N/A   Overcast
6:35 AM 51.8 °F - 51.8 °F 100% 29.88 in 5.0 mi Calm Calm - N/A   Overcast
6:55 AM 51.8 °F - 51.8 °F 100% 29.88 in 3.0 mi NE 3.5 mph - N/A   Overcast
7:15 AM 51.8 °F - 51.8 °F 100% 29.89 in 3.0 mi North 3.5 mph - N/A   Overcast
7:35 AM 51.8 °F - 51.8 °F 100% 29.89 in 4.0 mi NE 3.5 mph - N/A   Overcast
7:55 AM 51.8 °F - 51.8 °F 100% 29.89 in 4.0 mi ESE 3.5 mph - N/A   Overcast
8:15 AM 51.8 °F - 51.8 °F 100% 29.91 in 4.0 mi North 3.5 mph - N/A   Overcast
8:35 AM 51.8 °F - 51.8 °F 100% 29.91 in 5.0 mi Calm Calm - N/A   Overcast
8:55 AM 53.6 °F - 53.6 °F 100% 29.91 in 5.0 mi Calm Calm - N/A   Overcast
9:35 AM 53.6 °F - 53.6 °F 100% 29.90 in 10.0 mi NNE 3.5 mph - N/A Rain Light Rain
9:55 AM 55.4 °F - 53.6 °F 94% 29.90 in 10.0 mi North 8.1 mph - N/A   Overcast
10:15 AM 55.4 °F - 51.8 °F 88% 29.90 in 10.0 mi North 10.4 mph 17.3 mph N/A   Overcast
10:35 AM 55.4 °F - 51.8 °F 88% 29.90 in 10.0 mi North 6.9 mph - N/A   Overcast
10:55 AM 53.6 °F - 50.0 °F 88% 29.90 in 10.0 mi North 10.4 mph - N/A   Overcast
11:15 AM 53.6 °F - 51.8 °F 94% 29.90 in 10.0 mi North 9.2 mph - N/A   Drizzle
11:35 AM 53.6 °F - 51.8 °F 94% 29.89 in 10.0 mi North 8.1 mph - N/A   Overcast
11:55 AM 53.6 °F - 51.8 °F 94% 29.88 in 10.0 mi North 6.9 mph - N/A   Overcast
12:15 PM 53.6 °F - 50.0 °F 88% 29.88 in 10.0 mi North 5.8 mph - N/A   Overcast
12:35 PM 51.8 °F - 50.0 °F 94% 29.87 in 7.0 mi North 5.8 mph - N/A Rain Rain
12:55 PM 51.8 °F - 50.0 °F 94% 29.86 in 10.0 mi NNE 6.9 mph - N/A Rain Light Rain
1:35 PM 51.8 °F - 48.2 °F 88% 29.85 in 10.0 mi North 9.2 mph - 0.01 in Rain Light Rain
1:55 PM 50.0 °F - 46.4 °F 87% 29.84 in 10.0 mi North 8.1 mph - 0.01 in Rain Light Rain
2:15 PM 50.0 °F - 46.4 °F 87% 29.84 in 10.0 mi North 4.6 mph - N/A Rain Light Rain
2:35 PM 50.0 °F - 46.4 °F 87% 29.83 in 10.0 mi NNE 4.6 mph - N/A Rain Light Rain
2:55 PM 50.0 °F - 46.4 °F 87% 29.83 in 10.0 mi NNE 4.6 mph - N/A   Overcast
3:15 PM 50.0 °F - 46.4 °F 87% 29.82 in 10.0 mi North 3.5 mph - N/A   Overcast
3:35 PM 50.0 °F - 46.4 °F 87% 29.83 in 10.0 mi North 5.8 mph - N/A   Overcast
4:15 PM 48.2 °F - 46.4 °F 93% 29.83 in 10.0 mi NE 3.5 mph - N/A Rain Light Rain
4:35 PM 48.2 °F - 46.4 °F 93% 29.83 in 10.0 mi North 3.5 mph - N/A   Overcast
4:55 PM 50.0 °F - 44.6 °F 82% 29.82 in 10.0 mi North 5.8 mph - N/A   Overcast
5:15 PM 50.0 °F - 44.6 °F 82% 29.83 in 10.0 mi North 3.5 mph - N/A   Overcast
5:35 PM 50.0 °F - 44.6 °F 82% 29.84 in 10.0 mi NNW 4.6 mph - N/A   Overcast
5:55 PM 50.0 °F - 44.6 °F 82% 29.85 in 10.0 mi NNW 6.9 mph - N/A   Overcast
6:15 PM 50.0 °F - 42.8 °F 76% 29.83 in 10.0 mi NNW 9.2 mph - N/A   Mostly Cloudy
6:35 PM 50.0 °F - 41.0 °F 71% 29.84 in 10.0 mi NW 9.2 mph - N/A   Scattered Clouds
6:55 PM 50.0 °F - 39.2 °F 66% 29.85 in 10.0 mi NW 10.4 mph 24.2 mph N/A   Clear
7:15 PM 50.0 °F - 37.4 °F 62% 29.85 in 10.0 mi NW 11.5 mph - N/A   Clear
7:35 PM 48.2 °F - 37.4 °F 66% 29.85 in 10.0 mi NNW 8.1 mph - N/A   Clear
7:55 PM 48.2 °F - 37.4 °F 66% 29.85 in 10.0 mi NW 6.9 mph - N/A   Clear
8:15 PM 46.4 °F 44.3 °F 37.4 °F 71% 29.85 in 10.0 mi NNW 4.6 mph - N/A   Clear
8:35 PM 46.4 °F 44.3 °F 37.4 °F 71% 29.85 in 10.0 mi WNW 4.6 mph - N/A   Clear
9:15 PM 44.6 °F 41.4 °F 37.4 °F 76% 29.85 in 10.0 mi NW 5.8 mph - N/A   Clear
9:35 PM 42.8 °F 40.1 °F 35.6 °F 76% 29.85 in 10.0 mi NW 4.6 mph - N/A   Clear
9:55 PM 42.8 °F 40.1 °F 35.6 °F 76% 29.84 in 10.0 mi WNW 4.6 mph - N/A   Clear
10:15 PM 39.2 °F 37.0 °F 35.6 °F 87% 29.84 in 10.0 mi WNW 3.5 mph - N/A   Clear
10:35 PM 41.0 °F - 35.6 °F 81% 29.84 in 10.0 mi Calm Calm - N/A   Clear
10:55 PM 37.4 °F - 35.6 °F 93% 29.84 in 10.0 mi Calm Calm - N/A   Clear
11:15 PM 35.6 °F - 35.6 °F 100% 29.84 in 10.0 mi Calm Calm - N/A   Clear
11:35 PM 35.6 °F - 35.6 °F 100% 29.84 in 10.0 mi Calm Calm - N/A   Clear
11:55 PM 33.8 °F - 33.8 °F 100% 29.84 in 10.0 mi Calm Calm - N/A   Scattered Clouds